ABL8013 RKSS-RKPC

Flight info

Callsign ABL8013
Flight time 0h 47m
Altitude 24000
Route BULTI2T BULTI Y711 DOTOL DOTOL2M
Aircraft A21N/M-SDE2E3FGHIRWXY/LB1

Departure

Time 2025-09-07 03:23
Airport Gimpo International Airport (RKSS)

Arrival

Time 2025-09-07 04:10
Airport Jeju International Airport (RKPC)
Time Latitude Longitude Altitude Speed Heading
2025-09-07 03:03 37.55891 126.80159 72 ft 0 kts 44°
2025-09-07 03:07 37.55883 126.80151 72 ft 2 kts 44°
2025-09-07 03:07 37.55874 126.80139 66 ft 2 kts 44°
2025-09-07 03:08 37.55845 126.80104 70 ft 2 kts 59°
2025-09-07 03:08 37.55839 126.80089 68 ft 2 kts 72°
2025-09-07 03:09 37.55833 126.80055 62 ft 2 kts 89°
2025-09-07 03:09 37.55840 126.80035 62 ft 0 kts 133°
2025-09-07 03:13 37.55804 126.80078 67 ft 10 kts 137°
2025-09-07 03:14 37.55678 126.80233 72 ft 15 kts 135°
2025-09-07 03:14 37.55526 126.80239 72 ft 16 kts 229°
2025-09-07 03:15 37.55231 126.80434 70 ft 22 kts 135°
2025-09-07 03:15 37.55119 126.80573 70 ft 24 kts 135°
2025-09-07 03:16 37.54969 126.80769 66 ft 1 kts 133°
2025-09-07 03:16 37.54916 126.80827 64 ft 8 kts 161°
2025-09-07 03:17 37.54862 126.80802 67 ft 4 kts 225°
2025-09-07 03:19 37.54849 126.80786 63 ft 4 kts 225°
2025-09-07 03:20 37.54813 126.80690 65 ft 6 kts 286°
2025-09-07 03:20 37.54835 126.80641 66 ft 0 kts 313°
2025-09-07 03:21 37.55039 126.80386 66 ft 84 kts 315°
2025-09-07 03:21 37.55642 126.79626 64 ft 157 kts 315°
2025-09-07 03:22 37.57405 126.77457 1524 ft 179 kts 313°
2025-09-07 03:22 37.59444 126.74627 2500 ft 254 kts 312°
2025-09-07 03:23 37.63141 126.69638 5099 ft 261 kts 312°
2025-09-07 03:24 37.64796 126.65618 6956 ft 271 kts 269°
2025-09-07 03:24 37.62895 126.61672 8288 ft 285 kts 211°
2025-09-07 03:25 37.58937 126.60881 9681 ft 296 kts 186°
2025-09-07 03:25 37.55000 126.59300 10529 ft 313 kts 199°
2025-09-07 03:25 37.52777 126.58811 10760 ft 333 kts 190°
2025-09-07 03:26 37.47949 126.58206 11184 ft 365 kts 189°
2025-09-07 03:26 37.42721 126.57537 11698 ft 388 kts 189°
2025-09-07 03:27 37.34539 126.58796 13198 ft 403 kts 170°
2025-09-07 03:28 37.29087 126.60524 14072 ft 409 kts 168°
2025-09-07 03:28 37.24455 126.62079 14746 ft 413 kts 168°
2025-09-07 03:29 37.17935 126.64218 15676 ft 419 kts 169°
2025-09-07 03:29 37.13218 126.65762 16345 ft 422 kts 169°
2025-09-07 03:29 37.10369 126.66697 16750 ft 424 kts 169°
2025-09-07 03:30 37.04628 126.68579 17543 ft 427 kts 169°
2025-09-07 03:30 36.98881 126.70463 18306 ft 431 kts 169°
2025-09-07 03:31 36.93042 126.72384 18984 ft 434 kts 169°
2025-09-07 03:32 36.84398 126.76267 19959 ft 445 kts 162°
2025-09-07 03:32 36.81570 126.77725 20287 ft 446 kts 162°
2025-09-07 03:32 36.75793 126.80687 20943 ft 450 kts 162°
2025-09-07 03:33 36.69789 126.82637 21565 ft 443 kts 181°
2025-09-07 03:33 36.63614 126.82864 22223 ft 445 kts 184°
2025-09-07 03:34 36.57431 126.83056 22896 ft 450 kts 183°
2025-09-07 03:34 36.51116 126.83288 23526 ft 455 kts 183°
2025-09-07 03:35 36.41548 126.83650 23881 ft 461 kts 183°
2025-09-07 03:36 36.35162 126.83409 23871 ft 457 kts 189°
2025-09-07 03:36 36.28868 126.82713 23873 ft 457 kts 189°
2025-09-07 03:36 36.25694 126.82362 23861 ft 457 kts 189°
2025-09-07 03:37 36.16168 126.81322 23863 ft 459 kts 189°
2025-09-07 03:37 36.13013 126.80981 23866 ft 459 kts 189°
2025-09-07 03:38 36.06647 126.80293 23859 ft 459 kts 189°
2025-09-07 03:39 35.97077 126.79253 23858 ft 460 kts 189°
2025-09-07 03:39 35.90711 126.78564 23867 ft 461 kts 189°
2025-09-07 03:40 35.84321 126.77872 23876 ft 461 kts 189°
2025-09-07 03:40 35.77916 126.77180 23867 ft 461 kts 189°
2025-09-07 03:40 35.74714 126.76833 23847 ft 461 kts 189°
2025-09-07 03:41 35.68355 126.76147 23854 ft 461 kts 189°
2025-09-07 03:41 35.61963 126.75455 23869 ft 461 kts 189°
2025-09-07 03:42 35.55556 126.74766 23871 ft 462 kts 189°
2025-09-07 03:42 35.49131 126.74076 23871 ft 462 kts 189°
2025-09-07 03:43 35.39701 126.73073 23863 ft 434 kts 189°
2025-09-07 03:44 35.33919 126.72460 23787 ft 402 kts 189°
2025-09-07 03:44 35.31170 126.72169 23679 ft 389 kts 189°
2025-09-07 03:45 35.23341 126.71330 23097 ft 370 kts 189°
2025-09-07 03:45 35.18260 126.70786 22583 ft 367 kts 189°
2025-09-07 03:46 35.13195 126.70247 22077 ft 364 kts 189°
2025-09-07 03:46 35.08160 126.69708 21577 ft 361 kts 189°
2025-09-07 03:46 35.05679 126.69445 21332 ft 359 kts 189°
2025-09-07 03:47 34.98250 126.68660 20609 ft 355 kts 188°
2025-09-07 03:48 34.93361 126.68142 20132 ft 352 kts 188°
2025-09-07 03:48 34.88508 126.67629 19684 ft 349 kts 188°
2025-09-07 03:48 34.86083 126.67373 19446 ft 348 kts 188°
2025-09-07 03:49 34.78890 126.66614 18776 ft 343 kts 188°
2025-09-07 03:49 34.76557 126.66370 18508 ft 338 kts 188°
2025-09-07 03:50 34.71885 126.65877 17638 ft 335 kts 188°
2025-09-07 03:50 34.67251 126.65387 16782 ft 332 kts 188°
2025-09-07 03:51 34.60565 126.64688 16091 ft 309 kts 188°
2025-09-07 03:52 34.56265 126.64237 15225 ft 310 kts 188°
2025-09-07 03:52 34.54120 126.64012 14843 ft 309 kts 188°
2025-09-07 03:53 34.47724 126.63342 13894 ft 306 kts 188°
2025-09-07 03:53 34.45586 126.63119 13846 ft 306 kts 188°
2025-09-07 03:53 34.41362 126.62677 13857 ft 306 kts 188°
2025-09-07 03:54 34.37122 126.62233 13942 ft 306 kts 188°
2025-09-07 03:54 34.32881 126.61790 13975 ft 306 kts 188°
2025-09-07 03:55 34.26509 126.61128 13976 ft 306 kts 187°
2025-09-07 03:56 34.22236 126.61719 13978 ft 312 kts 172°
2025-09-07 03:56 34.18038 126.62820 13821 ft 306 kts 172°
2025-09-07 03:57 34.13872 126.63884 12992 ft 306 kts 172°
2025-09-07 03:57 34.11790 126.64405 12603 ft 304 kts 172°
2025-09-07 03:57 34.07667 126.65440 11839 ft 301 kts 172°
2025-09-07 03:58 34.03599 126.66461 11096 ft 298 kts 172°
2025-09-07 03:58 33.99542 126.67476 9996 ft 300 kts 172°
2025-09-07 03:59 33.93456 126.68996 8187 ft 294 kts 172°
2025-09-07 04:00 33.89481 126.69986 7082 ft 288 kts 172°
2025-09-07 04:00 33.85613 126.70948 5990 ft 282 kts 172°
2025-09-07 04:00 33.83672 126.71431 5404 ft 279 kts 172°
2025-09-07 04:01 33.79930 126.72360 4313 ft 274 kts 172°
2025-09-07 04:01 33.76193 126.73284 3971 ft 275 kts 172°
2025-09-07 04:02 33.72444 126.74207 3981 ft 274 kts 172°
2025-09-07 04:02 33.68780 126.75112 3651 ft 265 kts 172°
2025-09-07 04:03 33.63684 126.74682 2882 ft 234 kts 229°
2025-09-07 04:04 33.62278 126.71539 2890 ft 188 kts 246°
2025-09-07 04:04 33.61773 126.70211 2938 ft 163 kts 244°
2025-09-07 04:04 33.60775 126.67997 2883 ft 145 kts 241°
2025-09-07 04:05 33.59755 126.65921 2886 ft 144 kts 239°
2025-09-07 04:05 33.58704 126.63863 2675 ft 144 kts 239°
2025-09-07 04:06 33.57660 126.61821 2329 ft 143 kts 239°
2025-09-07 04:06 33.56626 126.59800 1961 ft 142 kts 239°
2025-09-07 04:07 33.55601 126.57797 1586 ft 140 kts 239°
2025-09-07 04:07 33.54588 126.55818 1254 ft 140 kts 240°
2025-09-07 04:08 33.53064 126.52846 761 ft 139 kts 240°
2025-09-07 04:09 33.52055 126.50874 356 ft 139 kts 241°
2025-09-07 04:09 33.51076 126.48954 99 ft 116 kts 241°
2025-09-07 04:10 33.50592 126.48175 97 ft 18 kts 207°
2025-09-07 04:10 33.50585 126.48379 98 ft 20 kts 59°
2025-09-07 04:10 33.50662 126.48529 101 ft 22 kts 58°
2025-09-07 04:11 33.50781 126.48844 99 ft 16 kts 138°
2025-09-07 04:12 33.50771 126.48953 99 ft 1 kts 329°
2025-09-07 04:12 33.50775 126.48951 98 ft 0 kts 332°